Tracking 22780 objects as of 11-Apr-2021
HD Live streaming from Space Station
objects crossing your sky now

THOR BURNER 2A DEB

Track THOR BURNER 2A DEB now!
10-day predictions


NORAD ID: 28591
Int'l Code: 1974-015C
Perigee: 794.8 km
Apogee: 863.6 km
Inclination: 99.2 °
Period: 101.3 minutes
Semi major axis: 7200 km
RCS: 0.1381 m2 (medium)
Launch date: March 16, 1974
Source: United States (US)
Launch site: AIR FORCE WESTERN TEST RANGE (AFWTR)

Note: This is SATELLITE DEBRIS
aabbcc
Your satellite tracking list
Your tracking list is empty




NASA's NSSDC Master Catalog

Two Line Element Set (TLE):
1 28591U 74015C   21100.82412574  .00000030  00000-0  35362-4 0  9995
2 28591  99.1528 296.7881 0047743 130.9641 241.2090 14.20979642840847
Source of the keplerian elements: AFSPC